{"data":{"norad_id":60291,"intl_designator":"2024-132P","name":"STARLINK-32142","alt_names":[],"object_type":"PAYLOAD","status":"ACTIVE","operator":null,"country":"US","launch_date":"2024-07-28","launch_site_code":"AFETR","launch_vehicle":null,"mission":null,"orbit_class":"UNKNOWN","rcs_meters":null,"size_class":null,"mass_kg":null,"dimensions":null,"purposes":["comms"],"wikipedia_slug":null,"has_3d_model":false,"image_url":null,"decayed_at":null,"tle_current":{"epoch":"2026-05-25T04:04:05.780640Z","epoch_age_seconds":63891,"freshness":"FRESH","line1":"1 60291U 24132P   26145.16951135  .00001045  00000+0  47381-4 0  9995","line2":"2 60291  53.1610  56.9166 0001216  86.1878 273.9261 15.30204507103277","mean_motion":15.30204507,"eccentricity":0.0001216,"inclination_deg":53.161,"raan_deg":56.9166,"arg_perigee_deg":86.1878,"mean_anomaly_deg":273.9261,"bstar":4.7381e-5,"rev_number":10327,"period_min":94.105068532516,"perigee_km":474.36824638748,"apogee_km":476.03497833801,"semimajor_km":6853.3386123627,"source":"CELESTRAK","updated_at":"2026-05-25T13:38:19.206366Z"}}}